owner,sensor,date,latitude,longitude,vertical_datum,wind_speed,wind_to_direction,wind_speed_of_gust,qcFlag 
TCOON,ioos:station:TCOON:146:1,2015-07-01T01:30:00Z,28.1324,-97.0345,0.0,4.0,210.0,4.6,'1111122,1111122,1111122' 
TCOON,ioos:station:TCOON:146:1,2015-07-01T02:30:00Z,28.1324,-97.0345,0.0,3.8,193.0,4.5,'1111122,1111122,1111122' 
TCOON,ioos:station:TCOON:146:1,2015-07-01T03:30:00Z,28.1324,-97.0345,0.0,3.8,196.0,4.5,'1111122,1111122,1111122' 
TCOON,ioos:station:TCOON:146:1,2015-07-01T05:30:00Z,28.1324,-97.0345,0.0,3.9,208.0,4.7,'1111122,1111122,1111122' 
TCOON,ioos:station:TCOON:146:1,2015-07-01T06:30:00Z,28.1324,-97.0345,0.0,3.7,200.0,4.6,'1111122,1111122,1111122' 
TCOON,ioos:station:TCOON:146:1,2015-07-01T07:30:00Z,28.1324,-97.0345,0.0,3.9,203.0,4.6,'1111122,1111122,1111122' 
TCOON,ioos:station:TCOON:146:1,2015-07-01T08:30:00Z,28.1324,-97.0345,0.0,4.8,219.0,5.8,'1111122,1111122,1111122' 
TCOON,ioos:station:TCOON:146:1,2015-07-01T09:30:00Z,28.1324,-97.0345,0.0,4.1,218.0,5.1,'1111122,1111122,1111122' 
TCOON,ioos:station:TCOON:146:1,2015-07-01T10:30:00Z,28.1324,-97.0345,0.0,4.0,219.0,5.1,'1111122,1111122,1111122' 
TCOON,ioos:station:TCOON:146:1,2015-07-01T11:30:00Z,28.1324,-97.0345,0.0,4.3,218.0,5.1,'1111122,1111122,1111122' 
TCOON,ioos:station:TCOON:146:1,2015-07-01T12:30:00Z,28.1324,-97.0345,0.0,4.0,216.0,4.9,'1111122,1111122,1111122' 
TCOON,ioos:station:TCOON:146:1,2015-07-01T18:30:00Z,28.1324,-97.0345,0.0,6.5,284.0,8.4,'1111122,1111122,1111122' 
TCOON,ioos:station:TCOON:146:1,2015-07-01T19:30:00Z,28.1324,-97.0345,0.0,5.1,282.0,6.6,'1111122,1111122,1111122' 
TCOON,ioos:station:TCOON:146:1,2015-07-01T21:30:00Z,28.1324,-97.0345,0.0,4.1,301.0,4.9,'1111122,1111122,1111122' 
TCOON,ioos:station:TCOON:146:1,2015-07-01T22:30:00Z,28.1324,-97.0345,0.0,4.1,292.0,5.0,'1111122,1111122,1111122' 
TCOON,ioos:station:TCOON:146:1,2015-07-01T23:30:00Z,28.1324,-97.0345,0.0,2.8,250.0,3.8,'1111122,1111122,1111122' 
TCOON,ioos:station:TCOON:146:1,2015-07-02T00:30:00Z,28.1324,-97.0345,0.0,4.1,225.0,4.9,'1111122,1111122,1111122' 
TCOON,ioos:station:TCOON:146:1,2015-07-02T01:30:00Z,28.1324,-97.0345,0.0,4.1,224.0,4.7,'1111122,1111122,1111122' 
TCOON,ioos:station:TCOON:146:1,2015-07-02T02:30:00Z,28.1324,-97.0345,0.0,4.3,226.0,4.9,'1111122,1111122,1111122' 
TCOON,ioos:station:TCOON:146:1,2015-07-02T04:30:00Z,28.1324,-97.0345,0.0,4.0,234.0,4.9,'1111122,1111122,1111122' 
TCOON,ioos:station:TCOON:146:1,2015-07-02T05:30:00Z,28.1324,-97.0345,0.0,4.2,232.0,4.9,'1111122,1111122,1111122' 
TCOON,ioos:station:TCOON:146:1,2015-07-02T06:30:00Z,28.1324,-97.0345,0.0,4.1,225.0,4.9,'1111122,1111122,1111122' 
TCOON,ioos:station:TCOON:146:1,2015-07-02T07:30:00Z,28.1324,-97.0345,0.0,3.9,207.0,4.6,'1111122,1111122,1111122' 
TCOON,ioos:station:TCOON:146:1,2015-07-02T08:30:00Z,28.1324,-97.0345,0.0,3.8,206.0,4.6,'1111122,1111122,1111122' 
TCOON,ioos:station:TCOON:146:1,2015-07-02T09:30:00Z,28.1324,-97.0345,0.0,4.0,200.0,4.7,'1111122,1111122,1111122' 
TCOON,ioos:station:TCOON:146:1,2015-07-02T10:30:00Z,28.1324,-97.0345,0.0,4.1,180.0,4.8,'1111122,1111122,1111122' 
TCOON,ioos:station:TCOON:146:1,2015-07-02T11:30:00Z,28.1324,-97.0345,0.0,3.7,189.0,4.6,'1111122,1111122,1111122' 
TCOON,ioos:station:TCOON:146:1,2015-07-02T12:30:00Z,28.1324,-97.0345,0.0,3.9,218.0,4.7,'1111122,1111122,1111122' 
TCOON,ioos:station:TCOON:146:1,2015-07-02T14:30:00Z,28.1324,-97.0345,0.0,4.2,223.0,5.0,'1111122,1111122,1111122' 
TCOON,ioos:station:TCOON:146:1,2015-07-02T16:30:00Z,28.1324,-97.0345,0.0,4.5,213.0,5.6,'1111122,1111122,1111122' 
TCOON,ioos:station:TCOON:146:1,2015-07-02T17:30:00Z,28.1324,-97.0345,0.0,5.4,216.0,6.5,'1111122,1111122,1111122' 
TCOON,ioos:station:TCOON:146:1,2015-07-02T18:30:00Z,28.1324,-97.0345,0.0,5.5,222.0,6.6,'1111122,1111122,1111122' 
TCOON,ioos:station:TCOON:146:1,2015-07-02T19:30:00Z,28.1324,-97.0345,0.0,6.3,221.0,7.4,'1111122,1111122,1111122' 
TCOON,ioos:station:TCOON:146:1,2015-07-02T20:30:00Z,28.1324,-97.0345,0.0,5.9,227.0,7.0,'1111122,1111122,1111122' 
TCOON,ioos:station:TCOON:146:1,2015-07-02T21:30:00Z,28.1324,-97.0345,0.0,5.6,226.0,7.1,'1111122,1111122,1111122' 
TCOON,ioos:station:TCOON:146:1,2015-07-03T14:30:00Z,28.1324,-97.0345,0.0,4.2,229.0,4.9,'1111122,1111122,1111122' 
TCOON,ioos:station:TCOON:146:1,2015-07-03T16:30:00Z,28.1324,-97.0345,0.0,4.1,228.0,4.8,'1111122,1111122,1111122' 
TCOON,ioos:station:TCOON:146:1,2015-07-03T17:30:00Z,28.1324,-97.0345,0.0,4.5,230.0,5.2,'1111122,1111122,1111122' 
TCOON,ioos:station:TCOON:146:1,2015-07-03T18:30:00Z,28.1324,-97.0345,0.0,5.2,228.0,6.1,'1111122,1111122,1111122' 
TCOON,ioos:station:TCOON:146:1,2015-07-03T19:30:00Z,28.1324,-97.0345,0.0,4.3,225.0,5.0,'1111122,1111122,1111122' 
TCOON,ioos:station:TCOON:146:1,2015-07-03T20:30:00Z,28.1324,-97.0345,0.0,4.4,222.0,5.3,'1111122,1111122,1111122' 
TCOON,ioos:station:TCOON:146:1,2015-07-03T21:30:00Z,28.1324,-97.0345,0.0,4.7,212.0,5.4,'1111122,1111122,1111122' 
TCOON,ioos:station:TCOON:146:1,2015-07-03T22:30:00Z,28.1324,-97.0345,0.0,5.2,217.0,6.5,'1111122,1111122,1111122' 
TCOON,ioos:station:TCOON:146:1,2015-07-04T00:30:00Z,28.1324,-97.0345,0.0,4.5,215.0,5.4,'1111122,1111122,1111122' 
TCOON,ioos:station:TCOON:146:1,2015-07-04T02:30:00Z,28.1324,-97.0345,0.0,4.8,221.0,5.9,'1111122,1111122,1111122' 
TCOON,ioos:station:TCOON:146:1,2015-07-04T03:30:00Z,28.1324,-97.0345,0.0,5.2,235.0,6.3,'1111122,1111122,1111122' 
TCOON,ioos:station:TCOON:146:1,2015-07-04T05:30:00Z,28.1324,-97.0345,0.0,4.5,247.0,5.7,'1111122,1111122,1111122' 
TCOON,ioos:station:TCOON:146:1,2015-07-04T06:30:00Z,28.1324,-97.0345,0.0,4.5,244.0,5.6,'1111122,1111122,1111122' 
TCOON,ioos:station:TCOON:146:1,2015-07-04T07:30:00Z,28.1324,-97.0345,0.0,4.3,249.0,5.8,'1111122,1111122,1111122' 
TCOON,ioos:station:TCOON:146:1,2015-07-04T08:30:00Z,28.1324,-97.0345,0.0,4.1,248.0,5.1,'1111122,1111122,1111122' 
TCOON,ioos:station:TCOON:146:1,2015-07-04T09:30:00Z,28.1324,-97.0345,0.0,4.6,242.0,6.1,'1111122,1111122,1111122' 
TCOON,ioos:station:TCOON:146:1,2015-07-04T10:30:00Z,28.1324,-97.0345,0.0,4.4,244.0,5.7,'1111122,1111122,1111122' 
TCOON,ioos:station:TCOON:146:1,2015-07-04T11:30:00Z,28.1324,-97.0345,0.0,4.1,239.0,5.3,'1111122,1111122,1111122' 
TCOON,ioos:station:TCOON:146:1,2015-07-04T12:30:00Z,28.1324,-97.0345,0.0,4.1,236.0,5.0,'1111122,1111122,1111122' 
TCOON,ioos:station:TCOON:146:1,2015-07-04T15:30:00Z,28.1324,-97.0345,0.0,4.7,229.0,5.8,'1111122,1111122,1111122' 
TCOON,ioos:station:TCOON:146:1,2015-07-04T16:30:00Z,28.1324,-97.0345,0.0,4.9,232.0,6.1,'1111122,1111122,1111122' 
TCOON,ioos:station:TCOON:146:1,2015-07-04T17:30:00Z,28.1324,-97.0345,0.0,5.1,229.0,6.2,'1111122,1111122,1111122' 
TCOON,ioos:station:TCOON:146:1,2015-07-04T18:30:00Z,28.1324,-97.0345,0.0,5.6,233.0,6.6,'1111122,1111122,1111122' 
TCOON,ioos:station:TCOON:146:1,2015-07-04T19:30:00Z,28.1324,-97.0345,0.0,6.2,234.0,7.5,'1111122,1111122,1111122' 
TCOON,ioos:station:TCOON:146:1,2015-07-04T20:30:00Z,28.1324,-97.0345,0.0,5.5,231.0,6.8,'1111122,1111122,1111122' 
TCOON,ioos:station:TCOON:146:1,2015-07-04T21:30:00Z,28.1324,-97.0345,0.0,5.3,228.0,6.2,'1111122,1111122,1111122' 
TCOON,ioos:station:TCOON:146:1,2015-07-04T22:30:00Z,28.1324,-97.0345,0.0,4.8,227.0,5.7,'1111122,1111122,1111122' 
TCOON,ioos:station:TCOON:146:1,2015-07-04T23:30:00Z,28.1324,-97.0345,0.0,5.1,216.0,6.2,'1111122,1111122,1111122' 
TCOON,ioos:station:TCOON:146:1,2015-07-05T00:30:00Z,28.1324,-97.0345,0.0,5.3,202.0,6.7,'1111122,1111122,1111122' 
TCOON,ioos:station:TCOON:146:1,2015-07-05T01:30:00Z,28.1324,-97.0345,0.0,5.9,215.0,6.9,'1111122,1111122,1111122' 
TCOON,ioos:station:TCOON:146:1,2015-07-05T02:30:00Z,28.1324,-97.0345,0.0,4.0,237.0,4.6,'1111122,1111122,1111122' 
TCOON,ioos:station:TCOON:146:1,2015-07-05T03:30:00Z,28.1324,-97.0345,0.0,4.4,236.0,5.4,'1111122,1111122,1111122' 
TCOON,ioos:station:TCOON:146:1,2015-07-05T04:30:00Z,28.1324,-97.0345,0.0,4.5,239.0,5.7,'1111122,1111122,1111122' 
TCOON,ioos:station:TCOON:146:1,2015-07-05T06:30:00Z,28.1324,-97.0345,0.0,4.3,240.0,5.4,'1111122,1111122,1111122' 
TCOON,ioos:station:TCOON:146:1,2015-07-05T07:30:00Z,28.1324,-97.0345,0.0,4.5,240.0,5.6,'1111122,1111122,1111122' 
TCOON,ioos:station:TCOON:146:1,2015-07-05T08:30:00Z,28.1324,-97.0345,0.0,4.9,241.0,6.0,'1111122,1111122,1111122' 
TCOON,ioos:station:TCOON:146:1,2015-07-05T10:30:00Z,28.1324,-97.0345,0.0,4.9,236.0,6.2,'1111122,1111122,1111122' 
TCOON,ioos:station:TCOON:146:1,2015-07-05T11:30:00Z,28.1324,-97.0345,0.0,5.5,227.0,6.8,'1111122,1111122,1111122' 
TCOON,ioos:station:TCOON:146:1,2015-07-05T12:30:00Z,28.1324,-97.0345,0.0,5.7,233.0,6.7,'1111122,1111122,1111122' 
TCOON,ioos:station:TCOON:146:1,2015-07-05T13:30:00Z,28.1324,-97.0345,0.0,5.5,231.0,6.5,'1111122,1111122,1111122' 
TCOON,ioos:station:TCOON:146:1,2015-07-05T16:30:00Z,28.1324,-97.0345,0.0,5.9,235.0,7.1,'1111122,1111122,1111122' 
TCOON,ioos:station:TCOON:146:1,2015-07-05T18:30:00Z,28.1324,-97.0345,0.0,5.8,238.0,7.3,'1111122,1111122,1111122' 
TCOON,ioos:station:TCOON:146:1,2015-07-05T21:30:00Z,28.1324,-97.0345,0.0,6.0,228.0,7.2,'1111122,1111122,1111122' 
TCOON,ioos:station:TCOON:146:1,2015-07-06T00:30:00Z,28.1324,-97.0345,0.0,6.6,224.0,8.0,'1111122,1111122,1111122' 
TCOON,ioos:station:TCOON:146:1,2015-07-06T01:30:00Z,28.1324,-97.0345,0.0,6.8,226.0,8.0,'1111122,1111122,1111122' 
TCOON,ioos:station:TCOON:146:1,2015-07-06T02:30:00Z,28.1324,-97.0345,0.0,6.1,229.0,7.1,'1111122,1111122,1111122' 
TCOON,ioos:station:TCOON:146:1,2015-07-06T03:30:00Z,28.1324,-97.0345,0.0,5.5,234.0,6.5,'1111122,1111122,1111122' 
TCOON,ioos:station:TCOON:146:1,2015-07-06T04:30:00Z,28.1324,-97.0345,0.0,5.9,225.0,7.1,'1111122,1111122,1111122' 
TCOON,ioos:station:TCOON:146:1,2015-07-06T05:30:00Z,28.1324,-97.0345,0.0,6.1,228.0,7.6,'1111122,1111122,1111122' 
TCOON,ioos:station:TCOON:146:1,2015-07-06T06:30:00Z,28.1324,-97.0345,0.0,5.3,237.0,6.4,'1111122,1111122,1111122' 
TCOON,ioos:station:TCOON:146:1,2015-07-06T07:30:00Z,28.1324,-97.0345,0.0,5.9,235.0,7.0,'1111122,1111122,1111122' 
TCOON,ioos:station:TCOON:146:1,2015-07-06T08:30:00Z,28.1324,-97.0345,0.0,5.1,236.0,6.5,'1111122,1111122,1111122' 
TCOON,ioos:station:TCOON:146:1,2015-07-06T09:30:00Z,28.1324,-97.0345,0.0,4.6,241.0,6.2,'1111122,1111122,1111122' 
TCOON,ioos:station:TCOON:146:1,2015-07-06T10:30:00Z,28.1324,-97.0345,0.0,4.5,236.0,5.7,'1111122,1111122,1111122' 
TCOON,ioos:station:TCOON:146:1,2015-07-06T11:30:00Z,28.1324,-97.0345,0.0,4.2,237.0,5.2,'1111122,1111122,1111122' 
TCOON,ioos:station:TCOON:146:1,2015-07-06T12:30:00Z,28.1324,-97.0345,0.0,4.1,246.0,5.2,'1111122,1111122,1111122' 
TCOON,ioos:station:TCOON:146:1,2015-07-06T14:30:00Z,28.1324,-97.0345,0.0,5.1,232.0,6.2,'1111122,1111122,1111122' 
TCOON,ioos:station:TCOON:146:1,2015-07-06T16:30:00Z,28.1324,-97.0345,0.0,5.1,233.0,6.4,'1111122,1111122,1111122' 
TCOON,ioos:station:TCOON:146:1,2015-07-06T17:30:00Z,28.1324,-97.0345,0.0,5.4,237.0,7.0,'1111122,1111122,1111122' 
TCOON,ioos:station:TCOON:146:1,2015-07-06T18:30:00Z,28.1324,-97.0345,0.0,5.7,226.0,7.4,'1111122,1111122,1111122' 
TCOON,ioos:station:TCOON:146:1,2015-07-06T20:30:00Z,28.1324,-97.0345,0.0,6.1,224.0,7.5,'1111122,1111122,1111122' 
TCOON,ioos:station:TCOON:146:1,2015-07-06T21:30:00Z,28.1324,-97.0345,0.0,6.4,225.0,7.6,'1111122,1111122,1111122' 
TCOON,ioos:station:TCOON:146:1,2015-07-06T22:30:00Z,28.1324,-97.0345,0.0,6.2,224.0,7.3,'1111122,1111122,1111122' 
TCOON,ioos:station:TCOON:146:1,2015-07-07T03:30:00Z,28.1324,-97.0345,0.0,6.6,232.0,7.8,'1111122,1111122,1111122' 
TCOON,ioos:station:TCOON:146:1,2015-07-07T04:30:00Z,28.1324,-97.0345,0.0,5.9,237.0,7.0,'1111122,1111122,1111122' 
TCOON,ioos:station:TCOON:146:1,2015-07-07T05:30:00Z,28.1324,-97.0345,0.0,4.9,237.0,6.2,'1111122,1111122,1111122' 
TCOON,ioos:station:TCOON:146:1,2015-07-07T06:30:00Z,28.1324,-97.0345,0.0,5.0,227.0,6.4,'1111122,1111122,1111122' 
TCOON,ioos:station:TCOON:146:1,2015-07-07T07:30:00Z,28.1324,-97.0345,0.0,5.4,239.0,6.7,'1111122,1111122,1111122' 
TCOON,ioos:station:TCOON:146:1,2015-07-07T08:30:00Z,28.1324,-97.0345,0.0,5.0,239.0,6.4,'1111122,1111122,1111122' 
TCOON,ioos:station:TCOON:146:1,2015-07-07T09:30:00Z,28.1324,-97.0345,0.0,5.5,240.0,6.8,'1111122,1111122,1111122' 
TCOON,ioos:station:TCOON:146:1,2015-07-07T20:30:00Z,28.1324,-97.0345,0.0,6.0,228.0,7.9,'1111122,1111122,1111122' 
TCOON,ioos:station:TCOON:146:1,2015-07-07T22:30:00Z,28.1324,-97.0345,0.0,6.9,225.0,8.7,'1111122,1111122,1111122' 
TCOON,ioos:station:TCOON:146:1,2015-07-08T00:30:00Z,28.1324,-97.0345,0.0,6.1,223.0,7.2,'1111122,1111122,1111122' 
TCOON,ioos:station:TCOON:146:1,2015-07-08T02:30:00Z,28.1324,-97.0345,0.0,5.5,226.0,6.9,'1111122,1111122,1111122' 
TCOON,ioos:station:TCOON:146:1,2015-07-08T03:30:00Z,28.1324,-97.0345,0.0,5.4,226.0,6.7,'1111122,1111122,1111122' 
TCOON,ioos:station:TCOON:146:1,2015-07-08T04:30:00Z,28.1324,-97.0345,0.0,5.3,227.0,6.4,'1111122,1111122,1111122' 
TCOON,ioos:station:TCOON:146:1,2015-07-08T05:30:00Z,28.1324,-97.0345,0.0,5.9,234.0,7.6,'1111122,1111122,1111122' 
TCOON,ioos:station:TCOON:146:1,2015-07-08T06:30:00Z,28.1324,-97.0345,0.0,6.0,232.0,7.5,'1111122,1111122,1111122' 
TCOON,ioos:station:TCOON:146:1,2015-07-08T07:30:00Z,28.1324,-97.0345,0.0,6.4,232.0,8.0,'1111122,1111122,1111122' 
TCOON,ioos:station:TCOON:146:1,2015-07-08T08:30:00Z,28.1324,-97.0345,0.0,6.2,239.0,7.7,'1111122,1111122,1111122' 
TCOON,ioos:station:TCOON:146:1,2015-07-08T09:30:00Z,28.1324,-97.0345,0.0,6.3,244.0,8.4,'1111122,1111122,1111122' 
TCOON,ioos:station:TCOON:146:1,2015-07-08T11:30:00Z,28.1324,-97.0345,0.0,5.8,244.0,7.6,'1111122,1111122,1111122' 
TCOON,ioos:station:TCOON:146:1,2015-07-08T12:30:00Z,28.1324,-97.0345,0.0,5.0,245.0,6.4,'1111122,1111122,1111122' 
TCOON,ioos:station:TCOON:146:1,2015-07-08T13:30:00Z,28.1324,-97.0345,0.0,5.5,243.0,7.3,'1111122,1111122,1111122' 
TCOON,ioos:station:TCOON:146:1,2015-07-08T15:30:00Z,28.1324,-97.0345,0.0,5.6,243.0,6.8,'1111122,1111122,1111122' 
TCOON,ioos:station:TCOON:146:1,2015-07-08T17:30:00Z,28.1324,-97.0345,0.0,6.5,231.0,8.1,'1111122,1111122,1111122' 
TCOON,ioos:station:TCOON:146:1,2015-07-08T18:30:00Z,28.1324,-97.0345,0.0,6.6,227.0,7.9,'1111122,1111122,1111122' 
TCOON,ioos:station:TCOON:146:1,2015-07-08T19:30:00Z,28.1324,-97.0345,0.0,6.5,228.0,7.8,'1111122,1111122,1111122' 
TCOON,ioos:station:TCOON:146:1,2015-07-08T20:30:00Z,28.1324,-97.0345,0.0,6.2,228.0,7.5,'1111122,1111122,1111122' 
TCOON,ioos:station:TCOON:146:1,2015-07-08T21:30:00Z,28.1324,-97.0345,0.0,6.3,220.0,7.5,'1111122,1111122,1111122' 
TCOON,ioos:station:TCOON:146:1,2015-07-08T22:30:00Z,28.1324,-97.0345,0.0,6.7,215.0,7.7,'1111122,1111122,1111122' 
TCOON,ioos:station:TCOON:146:1,2015-07-09T01:30:00Z,28.1324,-97.0345,0.0,5.5,215.0,6.6,'1111122,1111122,1111122' 
TCOON,ioos:station:TCOON:146:1,2015-07-09T02:30:00Z,28.1324,-97.0345,0.0,5.4,217.0,6.5,'1111122,1111122,1111122' 
TCOON,ioos:station:TCOON:146:1,2015-07-09T04:30:00Z,28.1324,-97.0345,0.0,5.9,216.0,7.0,'1111122,1111122,1111122' 
TCOON,ioos:station:TCOON:146:1,2015-07-09T06:30:00Z,28.1324,-97.0345,0.0,6.5,229.0,7.9,'1111122,1111122,1111122' 
TCOON,ioos:station:TCOON:146:1,2015-07-09T07:30:00Z,28.1324,-97.0345,0.0,5.6,234.0,6.9,'1111122,1111122,1111122' 
TCOON,ioos:station:TCOON:146:1,2015-07-09T08:30:00Z,28.1324,-97.0345,0.0,5.8,235.0,7.1,'1111122,1111122,1111122' 
TCOON,ioos:station:TCOON:146:1,2015-07-09T09:30:00Z,28.1324,-97.0345,0.0,5.7,233.0,6.9,'1111122,1111122,1111122' 
TCOON,ioos:station:TCOON:146:1,2015-07-09T10:30:00Z,28.1324,-97.0345,0.0,4.5,248.0,5.6,'1111122,1111122,1111122' 
TCOON,ioos:station:TCOON:146:1,2015-07-09T11:30:00Z,28.1324,-97.0345,0.0,4.9,245.0,6.6,'1111122,1111122,1111122' 
TCOON,ioos:station:TCOON:146:1,2015-07-09T12:30:00Z,28.1324,-97.0345,0.0,4.2,242.0,5.3,'1111122,1111122,1111122' 
TCOON,ioos:station:TCOON:146:1,2015-07-09T14:00:00Z,28.1324,-97.0345,0.0,5.3,225.0,6.4,'1111122,1111122,1111122' 
TCOON,ioos:station:TCOON:146:1,2015-07-09T15:00:00Z,28.1324,-97.0345,0.0,5.0,225.0,6.0,'1111122,1111122,1111122' 
TCOON,ioos:station:TCOON:146:1,2015-07-09T15:30:00Z,28.1324,-97.0345,0.0,4.7,229.0,5.7,'1111122,1111122,1111122' 
TCOON,ioos:station:TCOON:146:1,2015-07-09T16:30:00Z,28.1324,-97.0345,0.0,4.6,234.0,5.7,'1111122,1111122,1111122' 
TCOON,ioos:station:TCOON:146:1,2015-07-09T17:30:00Z,28.1324,-97.0345,0.0,4.5,224.0,5.4,'1111122,1111122,1111122' 
TCOON,ioos:station:TCOON:146:1,2015-07-09T18:30:00Z,28.1324,-97.0345,0.0,5.0,232.0,6.2,'1111122,1111122,1111122' 
TCOON,ioos:station:TCOON:146:1,2015-07-09T19:30:00Z,28.1324,-97.0345,0.0,4.5,229.0,5.6,'1111122,1111122,1111122' 
TCOON,ioos:station:TCOON:146:1,2015-07-09T20:30:00Z,28.1324,-97.0345,0.0,4.6,217.0,5.8,'1111122,1111122,1111122' 
TCOON,ioos:station:TCOON:146:1,2015-07-09T21:30:00Z,28.1324,-97.0345,0.0,4.9,216.0,5.8,'1111122,1111122,1111122' 
TCOON,ioos:station:TCOON:146:1,2015-07-09T22:30:00Z,28.1324,-97.0345,0.0,4.8,214.0,5.6,'1111122,1111122,1111122' 
TCOON,ioos:station:TCOON:146:1,2015-07-10T02:30:00Z,28.1324,-97.0345,0.0,5.7,221.0,7.4,'1111122,1111122,1111122' 
TCOON,ioos:station:TCOON:146:1,2015-07-10T03:30:00Z,28.1324,-97.0345,0.0,5.1,216.0,6.5,'1111122,1111122,1111122' 
TCOON,ioos:station:TCOON:146:1,2015-07-10T04:30:00Z,28.1324,-97.0345,0.0,4.5,208.0,5.5,'1111122,1111122,1111122' 
TCOON,ioos:station:TCOON:146:1,2015-07-10T05:30:00Z,28.1324,-97.0345,0.0,5.3,220.0,6.8,'1111122,1111122,1111122' 
TCOON,ioos:station:TCOON:146:1,2015-07-10T06:30:00Z,28.1324,-97.0345,0.0,6.0,232.0,7.6,'1111122,1111122,1111122' 
TCOON,ioos:station:TCOON:146:1,2015-07-10T07:30:00Z,28.1324,-97.0345,0.0,5.7,230.0,6.9,'1111122,1111122,1111122' 
TCOON,ioos:station:TCOON:146:1,2015-07-10T08:30:00Z,28.1324,-97.0345,0.0,5.5,234.0,6.8,'1111122,1111122,1111122' 
TCOON,ioos:station:TCOON:146:1,2015-07-10T09:30:00Z,28.1324,-97.0345,0.0,4.1,252.0,4.9,'1111122,1111122,1111122' 
TCOON,ioos:station:TCOON:146:1,2015-07-10T10:30:00Z,28.1324,-97.0345,0.0,3.3,266.0,4.2,'1111122,1111122,1111122' 
TCOON,ioos:station:TCOON:146:1,2015-07-10T11:30:00Z,28.1324,-97.0345,0.0,3.5,252.0,4.6,'1111122,1111122,1111122' 
TCOON,ioos:station:TCOON:146:1,2015-07-10T12:30:00Z,28.1324,-97.0345,0.0,4.0,240.0,4.8,'1111122,1111122,1111122' 
TCOON,ioos:station:TCOON:146:1,2015-07-10T14:30:00Z,28.1324,-97.0345,0.0,4.1,237.0,5.0,'1111122,1111122,1111122' 
TCOON,ioos:station:TCOON:146:1,2015-07-10T15:30:00Z,28.1324,-97.0345,0.0,4.0,232.0,5.0,'1111122,1111122,1111122' 
TCOON,ioos:station:TCOON:146:1,2015-07-10T16:30:00Z,28.1324,-97.0345,0.0,3.9,226.0,4.7,'1111122,1111122,1111122' 
TCOON,ioos:station:TCOON:146:1,2015-07-10T17:30:00Z,28.1324,-97.0345,0.0,4.0,221.0,4.9,'1111122,1111122,1111122' 
TCOON,ioos:station:TCOON:146:1,2015-07-10T18:30:00Z,28.1324,-97.0345,0.0,4.3,224.0,5.1,'1111122,1111122,1111122' 
TCOON,ioos:station:TCOON:146:1,2015-07-10T20:30:00Z,28.1324,-97.0345,0.0,3.9,213.0,4.7,'1111122,1111122,1111122' 
TCOON,ioos:station:TCOON:146:1,2015-07-10T22:30:00Z,28.1324,-97.0345,0.0,3.9,202.0,5.0,'1111122,1111122,1111122' 
TCOON,ioos:station:TCOON:146:1,2015-07-11T01:30:00Z,28.1324,-97.0345,0.0,3.8,199.0,4.6,'1111122,1111122,1111122' 
TCOON,ioos:station:TCOON:146:1,2015-07-11T02:30:00Z,28.1324,-97.0345,0.0,4.4,202.0,5.6,'1111122,1111122,1111122' 
TCOON,ioos:station:TCOON:146:1,2015-07-11T03:30:00Z,28.1324,-97.0345,0.0,4.9,204.0,6.1,'1111122,1111122,1111122' 
TCOON,ioos:station:TCOON:146:1,2015-07-11T04:30:00Z,28.1324,-97.0345,0.0,4.8,210.0,5.9,'1111122,1111122,1111122' 
TCOON,ioos:station:TCOON:146:1,2015-07-11T05:30:00Z,28.1324,-97.0345,0.0,3.8,215.0,4.6,'1111122,1111122,1111122' 
TCOON,ioos:station:TCOON:146:1,2015-07-11T06:30:00Z,28.1324,-97.0345,0.0,4.0,225.0,4.6,'1111122,1111122,1111122' 
TCOON,ioos:station:TCOON:146:1,2015-07-11T08:00:00Z,28.1324,-97.0345,0.0,3.8,229.0,4.7,'1111122,1111122,1111122' 
TCOON,ioos:station:TCOON:146:1,2015-07-11T10:30:00Z,28.1324,-97.0345,0.0,4.0,237.0,4.9,'1111122,1111122,1111122' 
TCOON,ioos:station:TCOON:146:1,2015-07-11T12:30:00Z,28.1324,-97.0345,0.0,4.2,225.0,4.8,'1111122,1111122,1111122' 
TCOON,ioos:station:TCOON:146:1,2015-07-11T15:30:00Z,28.1324,-97.0345,0.0,3.9,229.0,4.7,'1111122,1111122,1111122' 
TCOON,ioos:station:TCOON:146:1,2015-07-11T16:30:00Z,28.1324,-97.0345,0.0,2.8,198.0,3.6,'1111122,1111122,1111122' 
TCOON,ioos:station:TCOON:146:1,2015-07-11T17:30:00Z,28.1324,-97.0345,0.0,3.8,213.0,4.7,'1111122,1111122,1111122' 
TCOON,ioos:station:TCOON:146:1,2015-07-11T18:30:00Z,28.1324,-97.0345,0.0,3.7,206.0,4.5,'1111122,1111122,1111122' 
TCOON,ioos:station:TCOON:146:1,2015-07-11T20:30:00Z,28.1324,-97.0345,0.0,4.2,212.0,5.0,'1111122,1111122,1111122' 
TCOON,ioos:station:TCOON:146:1,2015-07-11T22:30:00Z,28.1324,-97.0345,0.0,4.0,215.0,4.9,'1111122,1111122,1111122' 
TCOON,ioos:station:TCOON:146:1,2015-07-12T00:30:00Z,28.1324,-97.0345,0.0,3.8,205.0,4.5,'1111122,1111122,1111122' 
TCOON,ioos:station:TCOON:146:1,2015-07-12T01:30:00Z,28.1324,-97.0345,0.0,3.8,207.0,4.6,'1111122,1111122,1111122' 
TCOON,ioos:station:TCOON:146:1,2015-07-12T02:30:00Z,28.1324,-97.0345,0.0,3.9,219.0,4.9,'1111122,1111122,1111122' 
TCOON,ioos:station:TCOON:146:1,2015-07-12T03:30:00Z,28.1324,-97.0345,0.0,4.2,219.0,5.0,'1111122,1111122,1111122' 
TCOON,ioos:station:TCOON:146:1,2015-07-12T05:30:00Z,28.1324,-97.0345,0.0,4.6,225.0,5.5,'1111122,1111122,1111122' 
TCOON,ioos:station:TCOON:146:1,2015-07-12T06:30:00Z,28.1324,-97.0345,0.0,4.3,235.0,5.2,'1111122,1111122,1111122' 
TCOON,ioos:station:TCOON:146:1,2015-07-12T07:30:00Z,28.1324,-97.0345,0.0,4.0,253.0,4.8,'1111122,1111122,1111122' 
TCOON,ioos:station:TCOON:146:1,2015-07-12T08:30:00Z,28.1324,-97.0345,0.0,4.0,263.0,4.7,'1111122,1111122,1111122' 
TCOON,ioos:station:TCOON:146:1,2015-07-12T09:30:00Z,28.1324,-97.0345,0.0,4.1,256.0,4.9,'1111122,1111122,1111122' 
TCOON,ioos:station:TCOON:146:1,2015-07-12T10:30:00Z,28.1324,-97.0345,0.0,4.2,258.0,4.9,'1111122,1111122,1111122' 
TCOON,ioos:station:TCOON:146:1,2015-07-12T11:30:00Z,28.1324,-97.0345,0.0,3.2,280.0,3.8,'1111122,1111122,1111122' 
TCOON,ioos:station:TCOON:146:1,2015-07-12T12:30:00Z,28.1324,-97.0345,0.0,3.2,272.0,4.0,'1111122,1111122,1111122' 
TCOON,ioos:station:TCOON:146:1,2015-07-12T13:30:00Z,28.1324,-97.0345,0.0,3.2,272.0,4.4,'1111122,1111122,1111122' 
TCOON,ioos:station:TCOON:146:1,2015-07-12T14:30:00Z,28.1324,-97.0345,0.0,4.1,244.0,4.8,'1111122,1111122,1111122' 
TCOON,ioos:station:TCOON:146:1,2015-07-12T15:30:00Z,28.1324,-97.0345,0.0,4.1,234.0,4.7,'1111122,1111122,1111122' 
TCOON,ioos:station:TCOON:146:1,2015-07-12T16:30:00Z,28.1324,-97.0345,0.0,3.9,225.0,4.8,'1111122,1111122,1111122' 
TCOON,ioos:station:TCOON:146:1,2015-07-12T17:30:00Z,28.1324,-97.0345,0.0,3.9,223.0,4.8,'1111122,1111122,1111122' 
TCOON,ioos:station:TCOON:146:1,2015-07-12T18:30:00Z,28.1324,-97.0345,0.0,4.0,226.0,4.8,'1111122,1111122,1111122' 
TCOON,ioos:station:TCOON:146:1,2015-07-12T19:30:00Z,28.1324,-97.0345,0.0,3.9,222.0,4.8,'1111122,1111122,1111122' 
TCOON,ioos:station:TCOON:146:1,2015-07-12T20:30:00Z,28.1324,-97.0345,0.0,4.4,223.0,5.4,'1111122,1111122,1111122' 
TCOON,ioos:station:TCOON:146:1,2015-07-12T22:30:00Z,28.1324,-97.0345,0.0,4.8,221.0,5.8,'1111122,1111122,1111122' 
TCOON,ioos:station:TCOON:146:1,2015-07-13T00:30:00Z,28.1324,-97.0345,0.0,5.1,215.0,6.1,'1111122,1111122,1111122' 
TCOON,ioos:station:TCOON:146:1,2015-07-13T02:30:00Z,28.1324,-97.0345,0.0,4.8,224.0,6.1,'1111122,1111122,1111122' 
TCOON,ioos:station:TCOON:146:1,2015-07-13T03:30:00Z,28.1324,-97.0345,0.0,4.7,230.0,5.8,'1111122,1111122,1111122' 
TCOON,ioos:station:TCOON:146:1,2015-07-13T04:30:00Z,28.1324,-97.0345,0.0,5.1,230.0,6.2,'1111122,1111122,1111122' 
TCOON,ioos:station:TCOON:146:1,2015-07-13T05:30:00Z,28.1324,-97.0345,0.0,5.1,242.0,6.2,'1111122,1111122,1111122' 
TCOON,ioos:station:TCOON:146:1,2015-07-13T06:30:00Z,28.1324,-97.0345,0.0,4.8,240.0,6.0,'1111122,1111122,1111122' 
TCOON,ioos:station:TCOON:146:1,2015-07-13T07:30:00Z,28.1324,-97.0345,0.0,4.4,251.0,5.6,'1111122,1111122,1111122' 
TCOON,ioos:station:TCOON:146:1,2015-07-13T15:00:00Z,28.1324,-97.0345,0.0,4.2,273.0,5.0,'1111122,1111122,1111122' 
TCOON,ioos:station:TCOON:146:1,2015-07-13T15:30:00Z,28.1324,-97.0345,0.0,3.9,271.0,4.7,'1111122,1111122,1111122' 